Precipitable_Water
0.22 0.23 0.22 0.22 0.21 0.19 0.18 0.17 0.16 0.15 0.17 0.18 0.17 0.19 0.21 0.21 0.17 0.14 0.16 0.19 0.18 0.17 0.18 0.22 0.24 0.24 0.24 0.25 0.27 0.28 0.29 0.29 0.29 0.28 0.28 0.27 0.25 0.25 0.28 0.31 0.32 0.31 0.30 0.31 0.34 0.36 0.42 0.44 0.46 0.50 0.53 0.59 0.65 0.65 0.67 0.69 0.71 0.73 0.76 0.73 0.76 0.79 0.82 0.81 0.85 0.88 0.85 0.82 0.78 0.78 0.76 0.74 0.69 0.65 0.62 0.60 0.59 0.57 0.54 0.52 0.50 0.49 0.49 0.48 0.46 0.44 0.43
0.23 0.23 0.23 0.23 0.21 0.19 0.18 0.17 0.17 0.19 0.19 0.17 0.17 0.17 0.19 0.20 0.18 0.18 0.17 0.18 0.18 0.20 0.23 0.25 0.28 0.30 0.30 0.31 0.32 0.32 0.30 0.29 0.29 0.27 0.26 0.25 0.26 0.26 0.27 0.28 0.30 0.30 0.31 0.32 0.34 0.35 0.37 0.40 0.42 0.44 0.48 0.53 0.58 0.64 0.69 0.76 0.80 0.84 0.81 0.78 0.77 0.77 0.78 0.80 0.88 0.91 0.87 0.84 0.82 0.83 0.81 0.76 0.71 0.67 0.64 0.62 0.59 0.56 0.53 0.51 0.50 0.50 0.49 0.48 0.45 0.42 0.41
0.23 0.25 0.24 0.23 0.22 0.20 0.17 0.17 0.18 0.19 0.18 0.18 0.19 0.18 0.16 0.17 0.18 0.19 0.19 0.18 0.16 0.24 0.27 0.29 0.32 0.32 0.33 0.31 0.30 0.30 0.31 0.30 0.28 0.27 0.27 0.27 0.28 0.28 0.29 0.29 0.30 0.30 0.31 0.32 0.33 0.35 0.37 0.38 0.39 0.43 0.46 0.49 0.53 0.58 0.68 0.68 0.69 0.85 0.90 0.84 0.80 0.81 0.80 0.82 0.79 0.83 0.88 0.87 0.86 0.85 0.82 0.79 0.73 0.68 0.65 0.63 0.59 0.56 0.53 0.51 0.50 0.50 0.49 0.45 0.43 0.43 0.41
0.23 0.25 0.24 0.23 0.23 0.21 0.18 0.16 0.18 0.18 0.17 0.15 0.16 0.16 0.18 0.17 0.16 0.16 0.16 0.15 0.15 0.23 0.29 0.30 0.30 0.29 0.28 0.28 0.29 0.29 0.29 0.28 0.28 0.27 0.27 0.28 0.28 0.29 0.30 0.31 0.33 0.34 0.35 0.35 0.34 0.35 0.37 0.40 0.40 0.40 0.43 0.47 0.52 0.57 0.63 0.71 0.74 0.75 0.89 0.92 0.85 0.78 0.76 0.77 0.74 0.80 0.85 0.85 0.87 0.85 0.82 0.79 0.74 0.70 0.67 0.62 0.58 0.56 0.54 0.52 0.52 0.51 0.47 0.45 0.44 0.43 0.42
0.22 0.26 0.26 0.24 0.23 0.19 0.15 0.14 0.18 0.19 0.18 0.17 0.17 0.19 0.20 0.20 0.20 0.16 0.14 0.15 0.22 0.25 0.29 0.25 0.25 0.27 0.28 0.28 0.28 0.28 0.28 0.28 0.29 0.28 0.28 0.29 0.30 0.31 0.31 0.32 0.32 0.34 0.36 0.38 0.39 0.38 0.39 0.40 0.41 0.42 0.44 0.45 0.46 0.52 0.60 0.68 0.75 0.76 0.76 0.79 0.84 0.82 0.81 0.82 0.76 0.79 0.80 0.87 0.87 0.84 0.80 0.78 0.74 0.71 0.64 0.61 0.59 0.58 0.56 0.56 0.53 0.49 0.47 0.46 0.44 0.43 0.41
0.23 0.24 0.24 0.22 0.19 0.13 0.11 0.18 0.19 0.19 0.17 0.18 0.16 0.17 0.20 0.22 0.22 0.20 0.22 0.23 0.26 0.27 0.25 0.23 0.23 0.24 0.25 0.27 0.29 0.31 0.29 0.28 0.29 0.30 0.31 0.32 0.33 0.33 0.34 0.35 0.35 0.36 0.37 0.38 0.39 0.40 0.42 0.43 0.44 0.44 0.44 0.44 0.48 0.52 0.56 0.62 0.70 0.76 0.76 0.76 0.76 0.79 0.79 0.78 0.78 0.74 0.74 0.79 0.79 0.79 0.79 0.77 0.73 0.68 0.64 0.60 0.61 0.61 0.59 0.56 0.52 0.49 0.47 0.44 0.43 0.40 0.38
0.22 0.24 0.23 0.19 0.13 0.12 0.19 0.22 0.23 0.22 0.22 0.21 0.19 0.20 0.22 0.23 0.24 0.24 0.24 0.26 0.26 0.27 0.27 0.27 0.27 0.27 0.29 0.29 0.28 0.30 0.33 0.33 0.32 0.31 0.32 0.32 0.33 0.33 0.34 0.34 0.36 0.37 0.38 0.39 0.38 0.37 0.37 0.40 0.43 0.44 0.42 0.41 0.44 0.49 0.55 0.58 0.65 0.72 0.78 0.74 0.77 0.75 0.76 0.78 0.77 0.75 0.76 0.75 0.73 0.73 0.76 0.75 0.70 0.65 0.63 0.62 0.62 0.61 0.57 0.54 0.51 0.48 0.45 0.42 0.40 0.38 0.36
0.24 0.20 0.18 0.13 0.11 0.17 0.21 0.21 0.22 0.23 0.24 0.22 0.19 0.17 0.23 0.23 0.25 0.26 0.24 0.27 0.28 0.29 0.29 0.29 0.31 0.30 0.30 0.31 0.30 0.31 0.33 0.30 0.29 0.28 0.28 0.30 0.32 0.32 0.34 0.34 0.35 0.37 0.38 0.39 0.40 0.39 0.40 0.39 0.38 0.39 0.40 0.43 0.41 0.43 0.53 0.56 0.61 0.64 0.67 0.82 0.82 0.83 0.80 0.79 0.78 0.78 0.78 0.75 0.73 0.73 0.72 0.70 0.67 0.64 0.63 0.62 0.60 0.59 0.56 0.54 0.52 0.47 0.44 0.41 0.37 0.33 0.30
0.15 0.16 0.16 0.15 0.18 0.16 0.17 0.17 0.18 0.18 0.18 0.20 0.19 0.14 0.19 0.27 0.29 0.29 0.27 0.28 0.28 0.29 0.30 0.31 0.32 0.32 0.29 0.25 0.26 0.30 0.31 0.31 0.31 0.30 0.28 0.29 0.30 0.32 0.34 0.36 0.36 0.38 0.38 0.38 0.39 0.41 0.41 0.40 0.38 0.37 0.38 0.41 0.41 0.41 0.47 0.53 0.57 0.56 0.59 0.69 0.86 0.90 0.89 0.91 0.88 0.88 0.87 0.83 0.77 0.74 0.70 0.67 0.64 0.62 0.62 0.61 0.59 0.58 0.54 0.50 0.45 0.43 0.39 0.34 0.31 0.28 0.25
0.20 0.16 0.15 0.16 0.15 0.11 0.14 0.21 0.29 0.32 0.32 0.28 0.27 0.22 0.21 0.29 0.30 0.30 0.28 0.26 0.27 0.27 0.28 0.29 0.29 0.28 0.22 0.18 0.19 0.25 0.28 0.28 0.29 0.30 0.31 0.33 0.33 0.33 0.32 0.34 0.37 0.39 0.39 0.39 0.40 0.40 0.39 0.40 0.40 0.40 0.41 0.41 0.42 0.42 0.42 0.51 0.55 0.55 0.56 0.61 0.69 0.79 0.84 0.86 0.87 0.87 0.82 0.79 0.78 0.73 0.69 0.65 0.61 0.61 0.61 0.60 0.57 0.55 0.49 0.44 0.40 0.37 0.33 0.31 0.29 0.27 0.24
0.21 0.19 0.16 0.15 0.13 0.15 0.23 0.29 0.34 0.36 0.37 0.34 0.33 0.23 0.18 0.30 0.30 0.30 0.30 0.27 0.29 0.29 0.28 0.29 0.29 0.24 0.19 0.17 0.18 0.24 0.27 0.28 0.29 0.29 0.30 0.32 0.33 0.34 0.35 0.35 0.35 0.36 0.38 0.38 0.38 0.39 0.39 0.38 0.39 0.43 0.44 0.44 0.44 0.42 0.43 0.46 0.53 0.54 0.55 0.59 0.69 0.76 0.80 0.83 0.84 0.82 0.79 0.75 0.71 0.70 0.66 0.61 0.62 0.61 0.59 0.56 0.56 0.52 0.46 0.41 0.37 0.36 0.34 0.32 0.29 0.27 0.25
0.23 0.22 0.19 0.17 0.20 0.19 0.30 0.34 0.37 0.39 0.41 0.35 0.29 0.17 0.18 0.30 0.32 0.33 0.32 0.30 0.30 0.30 0.31 0.31 0.28 0.23 0.18 0.17 0.19 0.25 0.28 0.29 0.29 0.30 0.30 0.31 0.32 0.34 0.36 0.38 0.39 0.39 0.38 0.38 0.36 0.36 0.37 0.38 0.42 0.45 0.45 0.45 0.43 0.44 0.44 0.47 0.48 0.53 0.57 0.60 0.66 0.70 0.75 0.79 0.79 0.80 0.79 0.75 0.72 0.67 0.63 0.63 0.62 0.60 0.59 0.55 0.49 0.44 0.41 0.39 0.37 0.36 0.35 0.33 0.29 0.26 0.25
0.21 0.23 0.22 0.23 0.24 0.33 0.37 0.35 0.38 0.39 0.40 0.35 0.22 0.17 0.24 0.32 0.33 0.34 0.34 0.32 0.31 0.32 0.30 0.31 0.24 0.25 0.26 0.25 0.26 0.28 0.29 0.28 0.27 0.29 0.32 0.33 0.35 0.34 0.36 0.37 0.39 0.38 0.37 0.37 0.37 0.39 0.40 0.42 0.45 0.46 0.46 0.44 0.41 0.43 0.45 0.49 0.48 0.53 0.60 0.64 0.68 0.70 0.73 0.76 0.76 0.76 0.76 0.75 0.70 0.66 0.64 0.62 0.60 0.56 0.52 0.46 0.44 0.42 0.39 0.38 0.36 0.35 0.34 0.33 0.30 0.26 0.24
0.19 0.20 0.19 0.19 0.24 0.34 0.38 0.37 0.38 0.41 0.31 0.21 0.20 0.29 0.35 0.34 0.32 0.34 0.33 0.31 0.31 0.30 0.29 0.28 0.27 0.26 0.28 0.29 0.28 0.28 0.28 0.29 0.28 0.29 0.30 0.32 0.34 0.36 0.37 0.38 0.38 0.36 0.36 0.37 0.39 0.41 0.43 0.45 0.47 0.47 0.47 0.43 0.41 0.42 0.45 0.47 0.52 0.60 0.66 0.67 0.66 0.70 0.73 0.74 0.74 0.71 0.70 0.69 0.66 0.63 0.60 0.55 0.50 0.48 0.48 0.46 0.43 0.41 0.39 0.37 0.34 0.33 0.33 0.31 0.28 0.25 0.23
0.22 0.20 0.18 0.17 0.15 0.31 0.36 0.36 0.33 0.37 0.24 0.25 0.31 0.32 0.33 0.34 0.33 0.32 0.32 0.31 0.30 0.30 0.28 0.28 0.28 0.28 0.28 0.27 0.27 0.27 0.27 0.28 0.28 0.30 0.31 0.32 0.32 0.32 0.33 0.33 0.35 0.36 0.35 0.36 0.39 0.42 0.46 0.48 0.50 0.50 0.50 0.45 0.43 0.43 0.44 0.50 0.58 0.65 0.68 0.66 0.64 0.65 0.64 0.67 0.68 0.68 0.65 0.60 0.57 0.54 0.51 0.50 0.50 0.47 0.46 0.43 0.41 0.39 0.36 0.35 0.33 0.32 0.30 0.28 0.26 0.23 0.21
0.18 0.18 0.17 0.18 0.25 0.29 0.36 0.30 0.23 0.26 0.28 0.30 0.31 0.32 0.29 0.33 0.33 0.33 0.33 0.32 0.33 0.32 0.29 0.27 0.27 0.28 0.27 0.27 0.28 0.29 0.29 0.30 0.32 0.33 0.33 0.33 0.33 0.33 0.33 0.34 0.35 0.37 0.37 0.39 0.43 0.46 0.49 0.53 0.54 0.55 0.54 0.49 0.48 0.45 0.46 0.53 0.58 0.63 0.67 0.67 0.64 0.61 0.64 0.68 0.64 0.59 0.55 0.53 0.52 0.52 0.51 0.49 0.48 0.44 0.42 0.39 0.38 0.37 0.36 0.33 0.31 0.29 0.28 0.27 0.24 0.21 0.20
0.21 0.18 0.21 0.27 0.29 0.30 0.31 0.29 0.27 0.29 0.32 0.35 0.36 0.35 0.34 0.32 0.34 0.37 0.33 0.32 0.33 0.33 0.32 0.30 0.29 0.28 0.28 0.29 0.30 0.30 0.30 0.32 0.33 0.33 0.33 0.33 0.33 0.33 0.32 0.34 0.38 0.40 0.41 0.43 0.46 0.49 0.53 0.57 0.58 0.59 0.59 0.53 0.50 0.49 0.53 0.60 0.62 0.62 0.68 0.69 0.66 0.64 0.63 0.61 0.57 0.54 0.54 0.53 0.52 0.52 0.50 0.48 0.43 0.39 0.38 0.39 0.38 0.38 0.37 0.34 0.30 0.27 0.26 0.25 0.23 0.21 0.21
0.25 0.26 0.25 0.27 0.28 0.28 0.27 0.28 0.30 0.30 0.32 0.34 0.33 0.31 0.30 0.31 0.33 0.35 0.32 0.32 0.31 0.31 0.33 0.31 0.29 0.29 0.30 0.31 0.31 0.32 0.33 0.33 0.33 0.34 0.33 0.34 0.34 0.35 0.37 0.40 0.43 0.45 0.48 0.49 0.51 0.52 0.55 0.59 0.60 0.62 0.61 0.57 0.52 0.55 0.59 0.63 0.70 0.68 0.69 0.66 0.66 0.64 0.60 0.57 0.55 0.54 0.52 0.50 0.48 0.47 0.44 0.41 0.38 0.39 0.38 0.39 0.38 0.37 0.35 0.32 0.30 0.28 0.25 0.24 0.22 0.22 0.21
0.19 0.15 0.22 0.23 0.23 0.23 0.25 0.25 0.31 0.32 0.32 0.31 0.32 0.31 0.30 0.30 0.31 0.32 0.32 0.31 0.31 0.31 0.32 0.31 0.29 0.29 0.33 0.32 0.32 0.33 0.34 0.32 0.31 0.32 0.32 0.34 0.36 0.37 0.39 0.43 0.47 0.49 0.51 0.51 0.53 0.53 0.52 0.61 0.64 0.63 0.63 0.63 0.64 0.68 0.69 0.71 0.70 0.69 0.65 0.63 0.60 0.56 0.53 0.53 0.52 0.49 0.47 0.46 0.45 0.43 0.41 0.39 0.38 0.39 0.39 0.38 0.37 0.35 0.33 0.31 0.30 0.27 0.24 0.23 0.22 0.21 0.21
0.17 0.17 0.20 0.21 0.22 0.23 0.24 0.26 0.25 0.25 0.27 0.28 0.29 0.29 0.30 0.30 0.31 0.30 0.30 0.31 0.29 0.31 0.30 0.31 0.31 0.32 0.34 0.33 0.33 0.33 0.32 0.31 0.32 0.33 0.34 0.36 0.38 0.42 0.45 0.48 0.52 0.53 0.55 0.55 0.56 0.59 0.61 0.65 0.67 0.67 0.72 0.71 0.72 0.71 0.72 0.74 0.69 0.65 0.64 0.60 0.55 0.52 0.51 0.49 0.46 0.45 0.46 0.45 0.43 0.41 0.39 0.38 0.38 0.38 0.39 0.38 0.36 0.34 0.33 0.31 0.27 0.23 0.23 0.22 0.21 0.21 0.21
0.18 0.20 0.20 0.21 0.22 0.21 0.22 0.24 0.24 0.25 0.27 0.27 0.26 0.28 0.28 0.28 0.27 0.28 0.28 0.29 0.28 0.29 0.30 0.32 0.34 0.33 0.34 0.35 0.35 0.34 0.33 0.33 0.34 0.35 0.37 0.40 0.43 0.45 0.47 0.51 0.55 0.57 0.59 0.61 0.64 0.65 0.65 0.66 0.67 0.68 0.71 0.74 0.72 0.72 0.69 0.69 0.68 0.64 0.61 0.57 0.54 0.50 0.48 0.47 0.46 0.46 0.45 0.43 0.41 0.40 0.39 0.39 0.40 0.39 0.38 0.38 0.36 0.35 0.34 0.31 0.25 0.23 0.22 0.21 0.22 0.23 0.23
0.16 0.16 0.18 0.21 0.17 0.15 0.18 0.21 0.25 0.26 0.28 0.28 0.27 0.26 0.26 0.26 0.26 0.26 0.26 0.27 0.29 0.30 0.32 0.34 0.35 0.34 0.34 0.36 0.36 0.35 0.36 0.37 0.37 0.38 0.41 0.44 0.46 0.48 0.53 0.58 0.60 0.63 0.64 0.64 0.64 0.65 0.64 0.67 0.69 0.70 0.71 0.71 0.73 0.71 0.68 0.66 0.63 0.57 0.54 0.52 0.51 0.51 0.50 0.47 0.46 0.45 0.43 0.41 0.41 0.40 0.40 0.40 0.39 0.40 0.41 0.40 0.37 0.34 0.29 0.27 0.28 0.28 0.27 0.24 0.24 0.25 0.25
0.17 0.21 0.24 0.25 0.24 0.22 0.22 0.23 0.27 0.29 0.29 0.28 0.26 0.25 0.25 0.26 0.28 0.29 0.29 0.28 0.28 0.30 0.32 0.37 0.37 0.36 0.36 0.37 0.39 0.39 0.39 0.39 0.42 0.44 0.47 0.49 0.51 0.54 0.58 0.60 0.63 0.62 0.63 0.64 0.66 0.63 0.62 0.66 0.67 0.68 0.66 0.67 0.67 0.65 0.64 0.61 0.58 0.56 0.55 0.51 0.49 0.47 0.46 0.45 0.44 0.43 0.42 0.41 0.41 0.40 0.40 0.40 0.39 0.38 0.37 0.38 0.37 0.33 0.27 0.29 0.29 0.29 0.28 0.28 0.28 0.28 0.28
0.24 0.24 0.25 0.27 0.25 0.22 0.22 0.25 0.26 0.26 0.29 0.29 0.27 0.27 0.28 0.29 0.30 0.33 0.32 0.31 0.31 0.32 0.35 0.38 0.40 0.39 0.39 0.40 0.42 0.40 0.40 0.43 0.47 0.50 0.53 0.56 0.57 0.59 0.62 0.63 0.62 0.61 0.63 0.64 0.63 0.61 0.63 0.62 0.65 0.65 0.63 0.63 0.63 0.61 0.59 0.55 0.54 0.53 0.51 0.48 0.46 0.46 0.46 0.45 0.44 0.43 0.42 0.41 0.40 0.40 0.40 0.40 0.38 0.37 0.35 0.32 0.30 0.29 0.30 0.31 0.31 0.30 0.30 0.30 0.29 0.29 0.29
0.22 0.26 0.28 0.28 0.27 0.27 0.28 0.27 0.27 0.28 0.30 0.31 0.29 0.28 0.29 0.30 0.32 0.34 0.32 0.33 0.36 0.38 0.39 0.39 0.40 0.42 0.41 0.42 0.43 0.42 0.44 0.48 0.52 0.55 0.56 0.59 0.61 0.62 0.61 0.62 0.61 0.62 0.63 0.63 0.63 0.65 0.63 0.60 0.61 0.61 0.60 0.60 0.60 0.57 0.58 0.57 0.54 0.50 0.48 0.48 0.47 0.47 0.47 0.45 0.44 0.42 0.41 0.40 0.40 0.40 0.39 0.39 0.37 0.36 0.33 0.29 0.26 0.27 0.30 0.31 0.31 0.31 0.31 0.32 0.31 0.29 0.28
0.27 0.27 0.28 0.29 0.29 0.29 0.30 0.30 0.28 0.30 0.32 0.34 0.34 0.33 0.33 0.34 0.34 0.34 0.34 0.35 0.38 0.41 0.41 0.41 0.40 0.41 0.45 0.44 0.45 0.47 0.51 0.53 0.56 0.58 0.58 0.60 0.61 0.60 0.61 0.60 0.60 0.62 0.65 0.64 0.64 0.64 0.60 0.59 0.59 0.58 0.57 0.58 0.59 0.59 0.55 0.52 0.50 0.49 0.48 0.48 0.48 0.47 0.46 0.44 0.43 0.42 0.41 0.40 0.40 0.40 0.40 0.39 0.37 0.35 0.31 0.28 0.28 0.28 0.28 0.28 0.28 0.30 0.32 0.32 0.31 0.29 0.29
0.31 0.33 0.32 0.28 0.26 0.27 0.30 0.28 0.26 0.31 0.34 0.37 0.37 0.36 0.35 0.35 0.36 0.36 0.37 0.38 0.39 0.41 0.42 0.42 0.41 0.43 0.47 0.51 0.51 0.54 0.55 0.58 0.58 0.58 0.59 0.61 0.61 0.61 0.61 0.63 0.62 0.64 0.65 0.63 0.63 0.62 0.59 0.59 0.58 0.56 0.56 0.57 0.57 0.54 0.50 0.50 0.49 0.48 0.47 0.46 0.46 0.45 0.44 0.44 0.42 0.41 0.41 0.41 0.41 0.41 0.40 0.39 0.37 0.34 0.30 0.30 0.30 0.29 0.28 0.27 0.27 0.28 0.29 0.30 0.31 0.31 0.28
0.31 0.32 0.32 0.26 0.23 0.25 0.27 0.31 0.33 0.35 0.38 0.37 0.36 0.35 0.35 0.37 0.37 0.36 0.36 0.37 0.39 0.41 0.43 0.44 0.44 0.44 0.46 0.52 0.54 0.56 0.58 0.57 0.56 0.58 0.59 0.60 0.61 0.63 0.62 0.62 0.64 0.62 0.63 0.64 0.59 0.60 0.59 0.58 0.56 0.54 0.54 0.54 0.52 0.51 0.50 0.49 0.47 0.46 0.45 0.44 0.44 0.43 0.42 0.42 0.41 0.42 0.43 0.43 0.42 0.41 0.40 0.39 0.36 0.33 0.32 0.31 0.30 0.29 0.29 0.29 0.30 0.30 0.30 0.30 0.31 0.31 0.29
0.29 0.31 0.33 0.33 0.32 0.34 0.36 0.36 0.36 0.37 0.38 0.39 0.38 0.37 0.37 0.36 0.36 0.37 0.38 0.39 0.41 0.44 0.46 0.47 0.48 0.49 0.51 0.54 0.56 0.56 0.56 0.56 0.57 0.57 0.59 0.61 0.63 0.63 0.63 0.60 0.62 0.62 0.59 0.57 0.58 0.56 0.56 0.54 0.53 0.52 0.50 0.51 0.51 0.50 0.48 0.47 0.46 0.45 0.44 0.44 0.43 0.41 0.41 0.42 0.44 0.44 0.44 0.44 0.44 0.43 0.41 0.38 0.35 0.34 0.33 0.32 0.30 0.30 0.30 0.30 0.30 0.32 0.31 0.31 0.31 0.30 0.29
0.31 0.33 0.33 0.34 0.35 0.36 0.36 0.34 0.34 0.36 0.36 0.37 0.37 0.37 0.39 0.38 0.38 0.39 0.40 0.40 0.42 0.44 0.46 0.49 0.48 0.49 0.53 0.55 0.56 0.55 0.56 0.56 0.57 0.58 0.59 0.61 0.61 0.62 0.62 0.61 0.59 0.57 0.55 0.56 0.57 0.57 0.56 0.55 0.53 0.51 0.51 0.52 0.51 0.50 0.49 0.48 0.47 0.46 0.44 0.44 0.42 0.42 0.42 0.44 0.45 0.45 0.45 0.45 0.44 0.43 0.41 0.38 0.36 0.34 0.33 0.32 0.30 0.31 0.32 0.32 0.32 0.32 0.31 0.30 0.31 0.30 0.28
0.33 0.34 0.35 0.36 0.37 0.38 0.36 0.36 0.37 0.37 0.37 0.37 0.38 0.37 0.38 0.41 0.41 0.40 0.40 0.41 0.45 0.47 0.47 0.50 0.48 0.49 0.51 0.53 0.55 0.56 0.57 0.57 0.56 0.55 0.57 0.58 0.57 0.59 0.59 0.57 0.53 0.51 0.52 0.55 0.56 0.56 0.55 0.55 0.54 0.53 0.53 0.52 0.52 0.50 0.48 0.47 0.45 0.45 0.44 0.43 0.43 0.43 0.44 0.45 0.46 0.47 0.47 0.46 0.44 0.42 0.40 0.37 0.35 0.34 0.34 0.33 0.32 0.33 0.34 0.34 0.33 0.33 0.32 0.31 0.31 0.31 0.30
0.33 0.34 0.36 0.38 0.38 0.36 0.36 0.36 0.35 0.34 0.35 0.37 0.36 0.34 0.35 0.37 0.38 0.38 0.39 0.40 0.46 0.52 0.50 0.48 0.46 0.47 0.51 0.54 0.55 0.56 0.56 0.56 0.55 0.54 0.54 0.55 0.55 0.56 0.55 0.55 0.54 0.53 0.53 0.56 0.56 0.56 0.55 0.54 0.53 0.53 0.54 0.53 0.52 0.50 0.49 0.47 0.46 0.44 0.43 0.44 0.45 0.45 0.46 0.47 0.47 0.48 0.48 0.47 0.47 0.43 0.37 0.36 0.36 0.37 0.37 0.35 0.34 0.35 0.35 0.35 0.33 0.34 0.33 0.32 0.31 0.32 0.33
0.36 0.34 0.33 0.33 0.33 0.33 0.33 0.34 0.33 0.33 0.35 0.35 0.36 0.37 0.38 0.39 0.40 0.40 0.41 0.43 0.50 0.52 0.49 0.46 0.47 0.49 0.53 0.53 0.52 0.53 0.53 0.54 0.54 0.53 0.53 0.53 0.53 0.51 0.53 0.54 0.52 0.50 0.51 0.55 0.55 0.55 0.54 0.53 0.52 0.53 0.53 0.53 0.52 0.51 0.50 0.48 0.47 0.46 0.47 0.47 0.47 0.47 0.47 0.48 0.48 0.48 0.46 0.42 0.39 0.36 0.36 0.37 0.38 0.36 0.33 0.33 0.34 0.35 0.35 0.35 0.35 0.35 0.35 0.34 0.33 0.34 0.35
0.33 0.31 0.32 0.33 0.33 0.31 0.31 0.33 0.36 0.36 0.37 0.39 0.40 0.40 0.40 0.41 0.42 0.44 0.45 0.50 0.50 0.46 0.45 0.45 0.49 0.51 0.52 0.51 0.51 0.51 0.52 0.51 0.49 0.49 0.49 0.50 0.51 0.52 0.52 0.49 0.50 0.52 0.51 0.53 0.54 0.53 0.53 0.53 0.54 0.54 0.54 0.54 0.54 0.53 0.52 0.51 0.51 0.50 0.50 0.50 0.50 0.49 0.49 0.49 0.48 0.47 0.43 0.39 0.38 0.39 0.39 0.37 0.35 0.33 0.33 0.34 0.35 0.35 0.35 0.34 0.35 0.36 0.36 0.36 0.35 0.35 0.35
0.39 0.38 0.38 0.37 0.38 0.38 0.38 0.37 0.37 0.37 0.38 0.38 0.39 0.40 0.44 0.46 0.46 0.46 0.48 0.45 0.46 0.48 0.48 0.48 0.49 0.50 0.50 0.49 0.49 0.49 0.49 0.48 0.49 0.49 0.49 0.49 0.49 0.50 0.51 0.50 0.49 0.50 0.51 0.51 0.53 0.53 0.50 0.55 0.54 0.55 0.54 0.54 0.52 0.52 0.52 0.52 0.52 0.51 0.51 0.49 0.48 0.47 0.47 0.47 0.46 0.43 0.40 0.39 0.38 0.36 0.35 0.35 0.34 0.34 0.34 0.35 0.35 0.35 0.34 0.34 0.35 0.35 0.36 0.36 0.36 0.36 0.35
0.39 0.38 0.38 0.39 0.39 0.40 0.40 0.40 0.41 0.41 0.41 0.40 0.43 0.47 0.48 0.47 0.50 0.50 0.47 0.47 0.49 0.51 0.49 0.49 0.49 0.49 0.48 0.48 0.47 0.47 0.47 0.48 0.49 0.49 0.49 0.49 0.50 0.51 0.50 0.48 0.47 0.46 0.47 0.47 0.52 0.54 0.54 0.55 0.56 0.55 0.54 0.53 0.53 0.52 0.53 0.53 0.53 0.52 0.52 0.51 0.49 0.47 0.45 0.43 0.42 0.40 0.40 0.38 0.36 0.36 0.35 0.36 0.36 0.36 0.36 0.36 0.36 0.36 0.35 0.34 0.34 0.35 0.36 0.37 0.37 0.36 0.35
0.40 0.39 0.38 0.39 0.40 0.41 0.41 0.41 0.43 0.43 0.42 0.42 0.45 0.46 0.46 0.47 0.46 0.48 0.48 0.48 0.48 0.49 0.49 0.49 0.48 0.47 0.47 0.48 0.48 0.48 0.48 0.48 0.48 0.48 0.49 0.50 0.50 0.50 0.48 0.47 0.47 0.46 0.45 0.45 0.49 0.54 0.55 0.56 0.56 0.56 0.55 0.55 0.54 0.53 0.53 0.52 0.52 0.52 0.51 0.50 0.50 0.46 0.43 0.41 0.40 0.39 0.38 0.38 0.37 0.36 0.36 0.36 0.36 0.37 0.37 0.37 0.36 0.36 0.36 0.35 0.35 0.36 0.36 0.37 0.38 0.37 0.36
0.40 0.41 0.40 0.40 0.41 0.41 0.42 0.43 0.44 0.44 0.44 0.44 0.46 0.47 0.46 0.44 0.46 0.47 0.46 0.47 0.47 0.48 0.48 0.48 0.47 0.47 0.47 0.48 0.47 0.47 0.48 0.49 0.49 0.49 0.48 0.48 0.47 0.47 0.46 0.47 0.46 0.46 0.45 0.46 0.52 0.54 0.54 0.55 0.55 0.54 0.53 0.53 0.53 0.53 0.53 0.53 0.52 0.51 0.49 0.48 0.45 0.42 0.41 0.40 0.38 0.38 0.37 0.37 0.36 0.35 0.35 0.35 0.35 0.36 0.36 0.37 0.37 0.36 0.36 0.36 0.36 0.36 0.37 0.38 0.38 0.38 0.38
0.39 0.41 0.42 0.43 0.43 0.42 0.42 0.43 0.44 0.45 0.45 0.43 0.44 0.44 0.46 0.46 0.45 0.46 0.45 0.46 0.47 0.47 0.46 0.45 0.45 0.44 0.43 0.42 0.41 0.41 0.42 0.42 0.43 0.44 0.44 0.44 0.45 0.44 0.44 0.46 0.48 0.49 0.49 0.52 0.52 0.52 0.53 0.54 0.54 0.53 0.52 0.52 0.52 0.52 0.52 0.52 0.51 0.50 0.48 0.45 0.41 0.39 0.38 0.38 0.38 0.38 0.38 0.38 0.37 0.36 0.36 0.36 0.36 0.35 0.35 0.35 0.36 0.36 0.36 0.36 0.37 0.37 0.37 0.38 0.38 0.39 0.39
0.39 0.39 0.40 0.42 0.41 0.43 0.43 0.43 0.44 0.44 0.45 0.46 0.45 0.44 0.45 0.45 0.44 0.43 0.44 0.44 0.44 0.43 0.41 0.39 0.38 0.36 0.36 0.36 0.36 0.36 0.36 0.37 0.37 0.37 0.37 0.38 0.39 0.38 0.38 0.41 0.45 0.48 0.50 0.50 0.50 0.51 0.51 0.51 0.50 0.51 0.52 0.52 0.52 0.51 0.50 0.49 0.48 0.47 0.45 0.42 0.40 0.39 0.38 0.38 0.38 0.38 0.38 0.38 0.37 0.36 0.35 0.34 0.34 0.35 0.35 0.35 0.35 0.35 0.35 0.37 0.37 0.37 0.36 0.37 0.38 0.39 0.40
0.40 0.40 0.41 0.42 0.42 0.43 0.43 0.43 0.43 0.44 0.45 0.45 0.45 0.45 0.46 0.45 0.45 0.44 0.43 0.43 0.43 0.43 0.41 0.39 0.38 0.37 0.37 0.36 0.35 0.35 0.35 0.34 0.34 0.34 0.34 0.33 0.33 0.33 0.32 0.32 0.36 0.39 0.42 0.45 0.46 0.47 0.48 0.47 0.48 0.48 0.48 0.49 0.47 0.46 0.43 0.42 0.40 0.38 0.37 0.36 0.36 0.36 0.36 0.36 0.36 0.36 0.36 0.36 0.36 0.35 0.35 0.34 0.34 0.34 0.34 0.34 0.34 0.35 0.37 0.38 0.38 0.36 0.35 0.36 0.37 0.39 0.40
0.40 0.41 0.41 0.41 0.41 0.42 0.43 0.44 0.44 0.44 0.44 0.45 0.46 0.45 0.45 0.45 0.44 0.43 0.43 0.43 0.43 0.43 0.42 0.42 0.41 0.39 0.39 0.38 0.36 0.35 0.34 0.34 0.34 0.34 0.34 0.33 0.32 0.31 0.29 0.30 0.33 0.34 0.36 0.35 0.36 0.37 0.39 0.41 0.42 0.43 0.42 0.41 0.39 0.38 0.36 0.33 0.32 0.29 0.30 0.32 0.34 0.35 0.35 0.35 0.35 0.35 0.36 0.36 0.36 0.35 0.35 0.34 0.33 0.33 0.33 0.34 0.35 0.36 0.37 0.36 0.36 0.36 0.34 0.35 0.37 0.38 0.40
0.40 0.40 0.40 0.40 0.40 0.41 0.42 0.42 0.43 0.43 0.43 0.44 0.45 0.45 0.45 0.45 0.44 0.44 0.44 0.43 0.43 0.42 0.42 0.41 0.40 0.39 0.38 0.37 0.36 0.35 0.34 0.34 0.34 0.34 0.35 0.35 0.36 0.35 0.33 0.32 0.33 0.33 0.33 0.32 0.32 0.31 0.32 0.35 0.36 0.36 0.36 0.35 0.35 0.33 0.30 0.28 0.28 0.28 0.29 0.31 0.33 0.34 0.34 0.34 0.35 0.36 0.35 0.35 0.34 0.34 0.34 0.33 0.33 0.33 0.33 0.32 0.32 0.33 0.33 0.34 0.33 0.34 0.34 0.34 0.35 0.37 0.39
0.34 0.36 0.38 0.39 0.40 0.40 0.40 0.40 0.41 0.41 0.41 0.42 0.44 0.45 0.45 0.45 0.45 0.44 0.43 0.42 0.42 0.42 0.41 0.40 0.40 0.40 0.40 0.39 0.37 0.36 0.36 0.36 0.35 0.35 0.33 0.33 0.34 0.36 0.37 0.35 0.34 0.34 0.33 0.32 0.31 0.30 0.30 0.31 0.31 0.31 0.31 0.31 0.31 0.30 0.30 0.29 0.28 0.28 0.28 0.28 0.28 0.29 0.30 0.30 0.31 0.32 0.32 0.32 0.31 0.30 0.29 0.29 0.28 0.27 0.26 0.26 0.26 0.27 0.28 0.29 0.30 0.32 0.32 0.32 0.34 0.35 0.37
0.24 0.25 0.26 0.28 0.31 0.33 0.35 0.36 0.36 0.36 0.38 0.40 0.40 0.41 0.42 0.42 0.42 0.42 0.41 0.40 0.39 0.38 0.38 0.38 0.38 0.38 0.39 0.39 0.38 0.37 0.37 0.37 0.37 0.37 0.35 0.33 0.33 0.33 0.37 0.37 0.36 0.35 0.34 0.33 0.32 0.31 0.31 0.31 0.30 0.29 0.29 0.29 0.29 0.29 0.29 0.29 0.29 0.28 0.28 0.28 0.27 0.27 0.27 0.27 0.26 0.27 0.27 0.26 0.26 0.25 0.25 0.25 0.24 0.24 0.24 0.24 0.24 0.23 0.24 0.25 0.26 0.28 0.30 0.31 0.32 0.34 0.35
0.22 0.22 0.22 0.21 0.21 0.21 0.24 0.26 0.28 0.31 0.32 0.32 0.32 0.33 0.34 0.34 0.34 0.34 0.35 0.34 0.33 0.33 0.33 0.33 0.33 0.33 0.34 0.34 0.34 0.35 0.35 0.36 0.36 0.37 0.36 0.36 0.34 0.36 0.38 0.37 0.37 0.36 0.35 0.34 0.33 0.32 0.32 0.32 0.31 0.30 0.30 0.30 0.29 0.29 0.28 0.28 0.28 0.28 0.28 0.28 0.28 0.28 0.27 0.27 0.27 0.26 0.26 0.26 0.25 0.25 0.24 0.24 0.24 0.25 0.25 0.25 0.25 0.25 0.25 0.26 0.26 0.26 0.27 0.28 0.30 0.32 0.34
0.22 0.21 0.21 0.20 0.20 0.21 0.21 0.21 0.21 0.21 0.21 0.21 0.21 0.23 0.25 0.27 0.27 0.26 0.26 0.25 0.25 0.26 0.26 0.27 0.27 0.27 0.28 0.29 0.30 0.29 0.29 0.29 0.31 0.32 0.33 0.34 0.36 0.37 0.37 0.37 0.36 0.36 0.35 0.35 0.34 0.34 0.33 0.33 0.32 0.31 0.31 0.31 0.30 0.30 0.29 0.29 0.28 0.28 0.28 0.28 0.28 0.27 0.27 0.27 0.27 0.26 0.26 0.26 0.26 0.26 0.25 0.25 0.25 0.25 0.26 0.26 0.26 0.26 0.26 0.26 0.26 0.27 0.27 0.27 0.27 0.29 0.30
0.23 0.22 0.21 0.20 0.20 0.20 0.20 0.19 0.18 0.17 0.17 0.17 0.18 0.18 0.19 0.19 0.19 0.19 0.19 0.19 0.19 0.19 0.19 0.19 0.19 0.20 0.21 0.21 0.22 0.22 0.22 0.21 0.20 0.22 0.25 0.26 0.27 0.28 0.30 0.31 0.32 0.33 0.33 0.33 0.33 0.34 0.34 0.33 0.33 0.33 0.32 0.32 0.31 0.30 0.30 0.29 0.28 0.28 0.28 0.28 0.28 0.27 0.27 0.27 0.26 0.26 0.26 0.26 0.26 0.26 0.25 0.25 0.25 0.25 0.25 0.25 0.25 0.26 0.26 0.26 0.26 0.26 0.27 0.27 0.26 0.27 0.27
0.25 0.24 0.24 0.22 0.20 0.19 0.18 0.18 0.16 0.15 0.15 0.15 0.15 0.15 0.17 0.17 0.17 0.17 0.17 0.17 0.16 0.16 0.16 0.17 0.17 0.18 0.19 0.19 0.19 0.19 0.20 0.20 0.19 0.18 0.21 0.22 0.22 0.23 0.24 0.24 0.25 0.27 0.28 0.29 0.29 0.30 0.32 0.33 0.33 0.33 0.32 0.32 0.31 0.31 0.30 0.30 0.29 0.28 0.28 0.28 0.27 0.27 0.27 0.26 0.26 0.27 0.26 0.26 0.26 0.26 0.26 0.25 0.25 0.25 0.25 0.25 0.25 0.25 0.25 0.25 0.26 0.26 0.26 0.27 0.27 0.27 0.27
0.24 0.23 0.21 0.20 0.19 0.18 0.18 0.17 0.16 0.16 0.16 0.16 0.15 0.15 0.15 0.15 0.14 0.15 0.16 0.16 0.16 0.16 0.16 0.16 0.16 0.17 0.17 0.18 0.18 0.19 0.19 0.19 0.19 0.19 0.20 0.20 0.20 0.21 0.22 0.22 0.23 0.23 0.24 0.24 0.25 0.26 0.27 0.29 0.31 0.31 0.31 0.30 0.30 0.30 0.29 0.29 0.28 0.28 0.28 0.28 0.28 0.27 0.28 0.27 0.27 0.27 0.27 0.27 0.27 0.26 0.26 0.26 0.26 0.26 0.26 0.25 0.25 0.25 0.25 0.25 0.26 0.26 0.26 0.27 0.27 0.27 0.27
0.23 0.22 0.20 0.20 0.20 0.19 0.18 0.17 0.17 0.17 0.17 0.16 0.16 0.16 0.15 0.14 0.13 0.13 0.14 0.14 0.14 0.14 0.14 0.14 0.15 0.16 0.17 0.17 0.17 0.18 0.18 0.18 0.18 0.17 0.17 0.18 0.18 0.18 0.19 0.20 0.21 0.21 0.22 0.22 0.22 0.22 0.23 0.24 0.25 0.27 0.28 0.28 0.27 0.27 0.27 0.27 0.27 0.27 0.27 0.27 0.27 0.27 0.27 0.27 0.27 0.26 0.26 0.27 0.27 0.27 0.27 0.27 0.27 0.27 0.26 0.26 0.26 0.25 0.25 0.25 0.26 0.26 0.26 0.26 0.27 0.27 0.28
0.23 0.22 0.21 0.20 0.18 0.17 0.16 0.16 0.16 0.16 0.16 0.16 0.15 0.15 0.15 0.15 0.15 0.14 0.14 0.14 0.13 0.12 0.13 0.13 0.13 0.16 0.17 0.17 0.17 0.17 0.17 0.17 0.17 0.16 0.17 0.17 0.17 0.17 0.18 0.18 0.19 0.19 0.20 0.20 0.20 0.20 0.21 0.22 0.23 0.23 0.23 0.24 0.25 0.25 0.26 0.26 0.26 0.26 0.26 0.27 0.27 0.27 0.27 0.27 0.26 0.26 0.26 0.27 0.27 0.26 0.27 0.27 0.27 0.27 0.26 0.26 0.26 0.26 0.26 0.26 0.26 0.26 0.27 0.27 0.28 0.29 0.29
Wind_Speed
22 22 22 22 22 23 24 24 25 25 23 23 25 25 24 22 22 26 27 24 25 27 26 25 25 26 25 25 24 25 25 25 25 26 27 28 29 29 29 29 29 30 29 29 30 30 30 31 31 32 32 33 33 34 36 36 36 36 36 35 34 34 34 33 31 30 30 29 28 28 27 27 26 25 25 25 24 24 24 24 24 24 24 24 25 26 27
23 22 23 23 22 23 25 25 24 23 23 24 25 26 25 25 26 27 27 27 27 27 27 27 26 25 24 24 24 25 26 26 27 28 29 30 30 30 30 31 31 32 31 31 31 31 30 31 31 32 32 33 34 34 35 36 36 36 36 36 35 33 33 33 32 31 31 29 28 28 27 26 26 26 25 25 25 24 25 25 25 25 25 25 26 27 27
23 22 23 23 23 24 26 26 23 22 24 24 23 24 24 24 26 26 26 27 28 27 27 27 25 24 23 24 25 26 27 28 29 29 29 30 30 31 31 32 32 33 33 32 32 32 31 32 32 32 32 32 33 35 36 37 37 37 36 35 34 33 33 33 33 32 32 30 29 28 27 26 26 26 26 25 25 25 25 26 26 26 26 26 27 27 28
25 24 25 25 24 24 27 27 24 24 25 24 23 23 23 23 25 24 24 26 28 28 27 27 25 24 24 25 26 27 28 29 29 29 29 30 30 31 31 32 32 32 33 33 33 33 33 33 33 33 32 32 32 33 36 37 38 38 37 36 36 35 34 34 33 32 32 31 29 28 28 28 28 27 26 26 26 26 26 26 26 27 27 27 27 28 28
25 24 24 24 22 24 27 26 23 23 24 23 22 22 21 22 22 22 23 25 25 26 25 25 25 25 25 26 28 29 29 29 28 28 29 30 31 32 32 33 33 32 33 33 33 34 34 34 34 34 34 34 34 33 34 36 37 39 39 38 38 37 36 35 34 33 33 32 30 28 28 29 28 27 27 27 27 27 27 27 27 27 27 27 27 28 30
25 24 23 22 23 25 26 24 21 20 20 20 20 20 21 22 21 21 22 22 23 24 24 24 25 26 26 28 29 29 29 28 28 30 31 32 33 33 33 34 34 34 34 34 34 35 35 35 35 35 35 36 36 35 34 34 35 37 38 38 39 38 38 37 36 35 35 34 32 30 28 28 28 28 27 27 27 27 27 27 27 27 27 27 28 30 31
25 24 22 23 26 26 24 23 22 20 19 19 20 21 22 23 22 21 21 22 24 24 25 25 26 27 28 29 29 29 28 28 29 31 32 33 33 34 34 34 34 35 35 35 36 36 36 36 36 36 36 36 37 37 36 35 35 35 36 37 38 39 40 38 37 37 37 35 33 31 29 27 26 26 26 27 27 27 27 27 27 27 27 28 29 31 32
24 23 22 24 26 26 25 25 25 23 21 21 22 23 24 24 23 22 22 24 25 26 26 26 27 28 28 28 28 27 27 28 30 31 32 33 33 34 34 35 35 35 36 36 36 36 37 37 37 37 36 37 37 38 38 37 36 35 35 36 36 36 37 37 37 36 36 34 32 31 29 27 26 26 26 27 27 27 27 26 26 27 27 28 30 31 32
24 24 24 25 26 27 26 26 25 25 25 24 23 23 24 23 22 22 22 24 25 26 26 26 27 28 28 27 26 27 28 29 30 31 32 33 34 34 35 35 36 36 36 36 37 37 38 38 38 38 37 37 37 38 38 38 37 36 35 35 35 33 31 31 32 32 31 29 28 28 28 28 27 27 27 27 26 26 26 26 26 27 28 29 29 30 31
22 23 23 23 23 24 23 22 22 22 21 20 19 20 22 23 23 22 22 24 25 26 26 26 27 27 28 28 27 27 29 30 31 33 33 34 35 35 36 36 36 36 36 36 37 38 38 39 39 39 39 38 37 37 38 38 37 36 35 36 36 35 32 31 32 32 31 29 27 26 27 27 27 27 26 25 25 25 25 26 27 27 28 28 29 30 32
20 20 21 21 21 21 21 20 20 20 19 19 18 19 22 24 24 23 23 24 25 25 25 25 25 25 27 28 28 28 30 31 32 34 35 36 36 36 36 36 37 37 37 37 38 38 39 39 39 39 39 39 38 37 37 37 37 37 36 36 36 36 34 31 31 32 31 30 29 27 27 27 26 26 25 24 24 24 25 26 26 27 28 29 30 31 32
20 19 20 20 20 20 20 20 20 21 19 18 17 19 22 23 23 23 22 23 24 24 24 25 24 24 27 29 30 31 32 34 34 35 36 37 37 37 37 38 38 39 38 38 38 38 38 38 38 37 37 37 37 37 36 36 37 37 36 36 36 36 34 31 29 27 27 27 28 28 27 26 26 25 24 23 23 24 25 26 27 28 29 30 31 32 33
18 18 20 21 21 21 21 22 21 20 18 16 17 19 21 22 22 22 22 23 24 25 25 26 26 27 30 32 34 35 35 36 37 36 36 37 37 37 38 38 39 39 39 38 38 37 36 36 35 34 34 35 35 35 35 35 36 36 35 35 35 35 34 32 29 27 25 24 24 24 25 25 25 25 25 24 25 25 26 27 28 29 30 30 31 32 33
17 17 18 19 19 19 20 21 21 20 18 17 19 21 22 23 24 24 24 26 27 27 28 29 30 32 33 35 36 37 37 38 38 37 37 37 37 37 37 38 38 38 38 37 36 35 34 34 33 32 32 32 33 34 34 35 35 35 34 34 34 34 33 32 30 29 27 24 23 23 23 23 24 25 25 25 26 26 27 28 28 28 29 29 30 32 34
18 18 18 18 17 18 19 19 19 19 20 21 23 24 25 26 27 27 28 28 29 29 30 31 32 34 35 36 37 38 38 38 38 37 37 37 37 37 37 37 37 36 36 35 33 33 33 32 32 31 31 31 31 31 32 33 33 33 32 32 32 33 33 32 30 28 27 25 24 23 22 22 22 23 24 24 25 26 26 27 27 27 28 29 31 33 35
18 18 18 17 18 19 20 21 22 23 24 25 26 27 27 27 28 28 29 30 30 31 32 33 34 35 36 36 37 37 37 37 36 35 35 35 35 35 35 35 35 34 33 32 31 31 31 31 31 30 29 30 29 29 30 30 30 31 32 31 30 30 31 30 28 26 24 23 22 21 21 21 21 21 22 23 23 24 24 25 25 27 28 30 31 33 35
20 21 22 22 22 23 23 24 25 26 26 26 26 27 28 28 29 29 30 31 32 33 34 35 36 36 37 37 36 35 34 33 33 33 33 33 33 33 33 32 31 29 29 29 29 29 30 30 30 29 28 27 27 27 27 28 29 29 30 29 28 28 28 26 24 23 21 20 20 19 19 19 19 19 20 20 21 22 23 24 25 27 29 30 32 34 36
24 25 25 24 25 26 27 27 27 26 27 27 27 28 29 30 31 31 32 33 34 35 35 36 37 37 36 35 33 31 30 31 31 31 31 31 31 30 29 28 27 26 26 26 27 27 27 26 25 24 23 23 24 24 24 25 28 29 29 28 27 27 26 23 22 21 20 19 18 18 18 17 17 17 17 18 19 21 22 23 25 27 29 31 32 34 36
26 27 27 26 28 30 30 29 28 28 29 29 29 30 31 32 33 34 34 35 35 35 35 35 35 34 32 30 29 28 28 29 30 29 29 29 28 27 25 25 25 24 23 23 22 22 22 20 19 18 18 18 19 20 21 24 27 28 28 27 26 25 24 23 21 21 20 18 17 17 18 17 17 17 17 18 19 20 22 24 26 28 29 31 33 35 36
27 28 29 30 31 32 30 29 30 31 31 31 31 32 33 33 34 34 34 34 34 34 33 32 31 30 28 27 27 27 27 28 28 27 27 27 25 24 24 23 23 21 20 18 17 15 14 13 12 14 14 13 16 19 21 24 27 27 26 25 24 23 23 22 20 19 18 17 17 17 17 17 16 16 17 18 19 20 22 24 26 28 29 31 33 34 36
27 28 29 29 30 30 29 29 31 31 31 32 32 32 33 33 33 33 33 33 32 31 30 29 28 28 27 26 26 26 26 26 26 25 24 24 23 22 21 20 19 16 14 13 11 10 9 8 9 12 12 13 17 20 23 25 26 25 24 23 22 22 21 19 17 16 16 16 16 15 15 15 15 16 17 18 18 20 22 24 26 27 29 31 33 34 35
27 26 26 26 28 29 28 28 29 30 30 31 31 31 31 32 31 32 31 31 30 29 28 27 27 26 25 25 24 25 25 25 24 23 22 22 21 19 18 16 15 13 11 11 10 9 8 8 9 12 13 15 18 21 23 25 25 24 23 22 21 20 18 16 16 16 15 14 14 13 12 13 14 15 16 17 18 20 22 24 26 27 29 31 32 33 34
27 28 28 26 26 27 27 27 28 28 28 29 29 30 30 29 29 29 29 28 28 27 26 25 24 23 23 23 23 23 23 23 22 21 20 19 17 16 14 12 11 11 10 9 8 9 9 8 10 14 17 19 19 21 23 24 24 23 22 21 19 18 16 16 15 14 13 12 11 11 11 12 13 14 15 17 19 21 23 24 26 27 29 31 31 32 32
28 28 28 26 26 27 27 27 27 28 28 28 29 29 28 27 27 26 25 25 24 23 22 22 21 20 20 21 21 21 21 20 20 19 18 17 15 12 10 9 10 10 9 8 9 10 10 10 13 17 20 20 21 22 23 22 21 20 20 19 18 16 15 14 13 11 10 10 9 10 11 11 12 13 15 17 19 22 23 25 26 27 29 29 30 30 30
28 27 26 26 27 27 27 27 27 27 27 27 27 26 25 25 24 23 22 21 20 19 18 18 18 18 18 18 19 18 18 18 18 17 16 14 11 9 8 8 9 9 8 9 11 12 12 13 17 19 19 19 20 20 19 18 18 17 17 16 15 14 13 12 11 9 9 8 9 9 10 11 12 13 15 17 19 21 23 24 25 26 27 27 27 28 28
27 26 26 26 26 25 25 25 25 24 24 24 24 23 23 22 22 21 20 18 17 17 17 15 15 15 15 15 16 16 15 15 15 14 12 9 8 8 8 9 9 8 7 10 13 14 15 16 18 18 17 18 17 17 17 16 15 14 13 13 12 12 11 10 9 8 7 8 8 9 10 11 12 14 15 17 18 20 22 22 23 23 24 24 25 26 27
24 24 24 24 23 23 23 23 22 22 22 21 21 20 20 20 20 19 17 17 17 17 15 14 13 13 12 12 13 13 12 12 10 9 7 7 8 8 8 8 7 7 9 12 14 15 17 18 18 17 17 17 17 16 15 14 12 12 12 12 11 10 10 9 8 7 7 7 8 9 9 10 12 13 15 16 18 19 20 20 21 21 22 23 24 25 26
22 22 22 22 22 22 21 21 21 20 19 19 18 18 17 17 17 15 15 15 15 14 13 12 11 10 10 10 9 9 8 7 6 4 4 6 8 8 8 8 8 10 12 13 14 16 19 19 17 15 16 17 16 14 13 12 12 12 12 11 11 10 9 8 7 7 6 6 7 8 9 10 12 12 13 15 17 18 18 18 19 20 21 22 23 25 26
20 20 20 20 20 20 20 19 18 17 17 17 16 15 14 14 13 12 12 12 12 11 10 9 8 7 7 7 5 4 4 3 1 2 4 7 8 9 11 12 13 13 14 14 16 19 19 18 16 15 15 16 14 13 12 13 13 12 11 11 10 9 8 7 6 5 5 6 7 8 9 10 10 11 13 14 15 16 16 17 17 19 20 21 23 24 25
17 17 17 18 17 17 17 16 15 14 14 13 13 12 11 10 10 10 10 9 9 8 8 7 6 5 4 3 1 3 2 3 5 7 8 10 12 14 14 15 14 14 14 16 18 19 18 17 16 14 14 14 13 13 13 13 12 11 11 10 9 8 7 6 5 4 5 6 7 7 8 9 9 11 12 14 14 15 15 16 17 18 20 21 22 24 25
16 15 14 14 13 13 12 12 12 12 12 11 11 10 10 9 9 9 9 7 6 6 6 5 5 4 3 2 1 3 5 6 8 10 11 13 14 14 14 14 13 13 14 16 17 16 16 16 14 12 12 12 13 13 12 11 11 11 10 9 7 6 5 4 4 4 5 6 7 7 8 9 9 11 13 14 14 14 15 15 15 17 19 21 22 24 25
10 10 9 9 10 10 10 10 10 10 10 10 10 10 9 9 9 8 7 6 5 6 6 5 4 3 3 3 4 6 7 9 11 12 13 13 13 13 12 13 13 13 15 15 14 13 13 13 11 10 11 12 12 12 11 10 10 9 8 7 6 5 4 3 3 3 4 5 6 6 7 8 10 11 12 12 12 13 14 14 14 16 19 21 22 23 24
6 6 7 8 9 9 9 8 8 8 8 8 8 8 7 7 7 7 6 5 5 6 5 4 4 5 6 6 7 8 8 10 11 12 12 12 12 12 13 12 12 12 13 13 12 11 10 10 9 9 10 11 11 10 9 9 9 8 7 6 5 4 3 2 2 3 3 4 4 5 7 9 10 10 10 10 11 12 12 13 14 16 18 20 22 23 24
6 6 7 7 7 7 7 7 7 6 5 4 4 4 4 5 5 5 5 5 5 6 6 7 7 8 8 8 8 9 9 9 10 11 10 11 11 11 11 11 11 10 10 10 10 9 8 8 8 9 10 10 10 9 9 8 8 7 6 5 4 3 2 2 2 2 2 3 4 5 7 8 8 8 9 10 11 12 12 12 14 16 18 20 21 22 23
6 6 6 5 5 5 5 5 4 3 2 1 1 1 2 3 5 7 7 7 6 7 8 9 9 9 9 9 9 9 9 9 9 9 9 9 9 9 9 9 9 9 9 9 8 8 7 7 8 9 10 10 9 8 8 8 7 6 5 4 2 1 1 1 1 1 2 3 4 6 7 7 7 8 8 10 11 12 12 12 14 15 17 19 21 22 23
7 6 5 5 5 4 3 2 2 1 3 3 4 5 7 8 8 8 8 7 8 8 9 10 10 10 10 9 9 8 8 8 8 8 8 7 8 8 8 7 7 8 8 8 7 7 7 8 8 9 10 10 9 8 7 7 6 6 5 4 2 2 1 1 1 1 2 3 4 5 6 7 7 8 9 10 11 12 12 13 14 15 17 18 20 21 22
8 7 6 4 4 4 4 4 4 4 5 6 6 6 7 8 8 8 8 9 9 9 10 10 11 11 10 8 8 8 7 7 7 7 6 6 6 6 6 6 6 6 7 6 6 7 8 8 8 9 10 9 8 7 7 6 6 5 5 4 3 2 1 1 1 1 2 3 4 5 6 7 8 9 9 10 11 13 13 13 14 15 16 17 19 20 21
9 9 8 7 6 6 6 6 6 6 7 7 7 7 7 8 8 9 9 10 10 11 11 11 11 10 9 8 8 8 7 6 6 6 6 5 5 6 5 5 5 5 6 6 6 7 8 9 9 9 9 8 7 7 6 6 5 5 5 4 4 3 2 1 1 1 2 3 4 5 6 8 9 10 10 10 11 12 13 13 14 15 15 16 18 19 20
10 10 9 9 9 8 8 8 8 8 8 8 8 8 9 10 10 10 10 10 11 11 11 11 10 9 9 8 8 8 8 7 6 7 6 6 6 6 6 6 6 6 6 6 7 7 8 8 8 8 8 8 7 7 6 5 5 5 4 4 3 2 2 1 1 1 2 3 4 5 7 8 9 10 11 11 11 12 13 13 14 15 15 16 17 18 19
10 11 11 11 11 11 11 11 11 10 10 10 10 10 10 10 10 10 10 11 11 11 10 10 9 8 7 7 7 7 7 7 6 6 6 7 7 7 6 6 5 5 5 6 7 7 7 8 8 8 8 7 7 6 5 4 4 4 4 3 3 2 1 0 1 2 3 4 5 6 7 8 9 10 11 12 11 12 13 13 14 15 15 15 16 17 18
10 11 12 13 13 12 12 12 12 12 12 12 12 11 11 11 11 11 11 11 11 10 9 9 8 7 7 6 6 5 6 6 6 6 6 5 6 6 5 5 4 4 5 6 7 6 6 7 7 7 7 6 6 5 5 4 4 4 4 3 2 2 1 0 1 2 3 4 5 6 7 8 9 10 12 12 12 12 12 13 14 15 15 15 15 16 17
11 11 12 12 12 12 12 13 13 13 13 13 12 12 12 12 12 11 11 11 11 10 10 9 9 8 7 7 6 6 5 5 5 6 6 5 4 5 5 4 4 4 4 5 6 6 6 6 6 6 6 6 5 5 5 5 5 4 4 3 2 2 1 1 1 2 3 4 5 6 7 8 9 11 12 13 13 13 12 13 14 14 14 14 15 15 16
11 12 12 12 12 12 12 12 12 12 12 12 11 11 12 12 12 12 11 11 11 10 9 9 8 8 8 7 7 6 5 5 5 5 5 5 5 5 4 4 4 4 4 4 5 5 5 5 5 5 5 5 5 5 5 5 5 5 4 4 3 2 1 0 1 2 3 4 5 6 7 8 9 11 12 13 13 13 13 13 13 14 14 14 14 14 15
10 11 12 13 13 13 12 12 12 12 11 11 10 10 10 10 10 10 10 9 8 8 7 6 6 6 6 6 6 5 5 4 4 4 3 4 4 4 4 4 4 4 4 4 4 4 5 5 5 5 4 4 4 5 5 6 6 5 5 4 3 2 2 2 2 3 4 5 6 7 8 9 10 10 11 13 13 13 13 12 13 13 14 14 14 14 15
10 10 11 12 13 13 13 13 13 12 12 11 11 11 10 9 9 9 8 8 7 7 6 6 5 5 4 4 4 3 3 3 3 2 2 2 2 2 2 2 3 3 3 4 5 5 5 5 5 4 4 5 5 6 6 7 6 6 5 5 4 4 3 3 3 4 5 5 6 7 8 8 9 10 11 12 13 13 13 12 12 13 13 14 14 14 15
9 9 10 11 11 12 12 12 12 12 12 12 11 11 10 10 9 8 8 7 7 6 6 5 5 4 3 3 2 2 2 2 1 1 1 0 1 2 2 2 2 3 3 4 5 5 6 6 5 5 5 6 6 7 7 7 7 7 7 6 5 5 5 5 5 5 6 6 7 7 8 8 9 10 11 12 13 13 12 12 12 12 13 14 14 14 14
7 8 8 9 9 9 10 10 10 10 10 10 10 9 9 8 8 7 7 6 6 5 5 4 4 3 2 1 1 1 1 1 1 1 1 2 2 3 3 4 4 4 4 5 5 6 6 6 7 7 7 7 7 8 8 8 8 8 8 7 7 7 6 6 6 7 7 7 7 8 8 8 9 10 11 12 13 13 12 12 11 12 12 13 14 14 14
5 5 6 6 7 7 7 7 8 8 8 8 7 7 7 7 6 6 6 5 5 5 4 4 4 4 4 4 3 4 4 4 4 4 4 5 5 5 5 6 6 6 6 6 7 7 7 7 8 8 8 8 9 9 9 9 9 9 9 9 8 8 8 8 8 8 8 8 8 8 9 9 10 10 11 12 12 12 12 11 11 11 11 12 13 13 14
4 4 4 4 4 5 5 5 5 5 5 6 6 5 5 5 5 5 4 4 4 4 4 5 5 5 6 6 6 6 6 6 7 7 7 8 8 8 8 8 8 8 8 8 9 8 8 8 9 9 9 10 10 10 10 10 10 10 10 10 10 9 9 9 9 9 9 9 9 9 9 10 10 11 11 12 12 12 11 11 11 11 11 11 12 12 13
4 4 4 3 3 3 3 3 2 2 3 3 3 4 4 4 4 5 5 5 5 5 6 6 6 7 7 8 8 8 9 9 9 9 10 10 10 10 11 10 10 10 10 10 10 10 11 11 11 11 11 11 12 12 12 12 11 11 11 11 10 10 10 10 10 10 10 10 10 10 10 10 11 11 11 12 12 12 11 11 11 11 11 11 11 12 12
4 3 3 2 1 1 1 0 0 0 1 2 3 4 4 5 6 6 7 7 8 8 8 9 9 9 10 10 10 11 11 12 12 12 12 13 13 13 13 13 13 13 12 12 12 12 12 13 13 13 13 13 13 13 13 13 12 12 12 11 11 11 11 11 11 11 11 11 11 11 11 11 11 11 11 12 12 11 11 11 11 11 11 11 11 11 11
4 3 3 2 2 1 1 1 2 2 3 3 4 5 6 7 8 9 10 10 11 11 11 11 12 13 13 13 13 13 14 14 14 15 15 15 15 15 15 15 15 15 15 14 14 14 14 14 14 14 14 14 14 14 14 14 14 13 13 12 12 12 11 11 11 11 11 11 11 11 11 11 11 12 12 12 11 11 11 11 11 10 10 10 10 11 11
Wind_Direction
265 263 265 266 265 266 267 265 266 265 263 261 259 257 256 254 256 260 260 258 260 264 266 268 269 268 268 270 271 272 273 275 276 275 275 277 279 279 278 278 278 278 279 277 277 277 277 276 275 274 272 268 264 262 258 254 252 252 252 251 250 248 249 248 247 246 245 246 247 249 252 255 256 257 259 262 264 267 269 270 272 272 273 275 277 279 280
269 265 265 265 265 268 269 267 266 264 263 261 260 259 257 255 256 258 260 261 261 262 264 267 269 269 270 272 274 276 277 277 277 278 278 278 279 278 277 277 277 277 277 276 275 275 275 275 274 274 273 270 266 262 260 256 253 251 251 249 248 248 248 245 245 245 244 243 246 249 251 253 254 256 259 261 264 267 269 271 272 273 275 277 279 281 282
271 269 267 266 267 268 269 269 267 265 265 265 263 261 259 259 260 261 261 262 262 262 263 264 266 269 271 273 276 278 278 278 278 279 278 278 278 278 277 277 277 276 275 274 273 273 273 273 273 272 271 271 267 263 259 257 253 251 248 246 245 247 246 244 245 246 242 242 247 248 249 252 254 256 258 260 263 266 268 270 272 274 276 279 281 282 283
272 271 269 269 272 273 271 270 267 266 268 268 264 263 262 261 261 262 262 262 261 262 265 265 265 268 271 273 275 277 277 277 277 277 278 278 278 278 278 278 277 276 275 274 273 273 273 272 272 270 269 269 268 264 260 256 253 250 247 245 245 246 246 244 244 243 240 243 246 246 248 252 254 256 258 260 262 264 266 269 271 274 277 279 281 282 283
272 271 270 271 276 276 272 268 265 265 265 265 265 266 264 261 260 260 260 260 260 262 265 267 268 269 271 272 275 276 276 276 277 278 279 279 279 279 278 278 278 277 276 275 274 274 273 271 270 270 268 267 267 266 262 257 253 249 246 245 245 245 245 244 243 241 241 242 243 245 250 253 253 255 257 259 261 263 265 267 270 273 276 278 279 282 284
270 269 271 275 275 271 269 268 265 263 261 260 261 263 263 262 263 262 260 262 264 265 266 267 268 270 271 273 275 275 275 276 278 280 282 281 281 281 280 279 279 278 277 276 276 275 273 272 270 269 268 266 265 265 262 259 255 251 248 246 244 243 243 243 242 241 241 240 241 245 250 252 252 253 255 258 260 262 263 266 268 271 273 276 279 282 286
266 268 268 270 270 268 269 272 269 263 260 258 259 263 265 265 265 264 262 264 266 266 267 268 270 272 273 275 276 275 275 277 280 282 283 283 282 282 282 281 280 279 278 278 277 275 274 273 271 270 268 266 265 263 261 258 256 254 251 248 243 242 242 242 241 241 239 238 240 243 246 250 251 252 255 259 260 260 262 264 267 269 273 277 281 284 288
263 264 261 262 268 271 272 273 271 267 266 265 265 268 269 267 264 261 261 263 264 265 267 270 272 274 274 274 274 275 277 279 282 283 283 283 282 282 282 281 280 279 279 278 277 276 274 273 272 270 268 267 265 263 260 257 254 252 251 248 243 240 239 239 239 238 235 234 238 240 242 246 249 252 257 260 260 260 262 264 267 271 275 278 282 285 288
260 260 260 265 273 275 272 271 271 270 267 265 264 265 266 267 265 262 262 264 265 266 268 271 274 276 276 273 272 275 279 282 282 282 282 282 281 281 281 281 280 279 278 278 277 276 274 273 272 270 269 267 265 263 259 255 252 250 247 244 240 237 236 236 235 232 230 232 236 239 241 245 250 254 259 259 258 260 262 265 268 272 276 280 283 286 289
261 260 263 269 273 272 272 272 274 275 271 265 262 264 266 267 267 265 265 267 269 270 273 276 278 280 279 275 273 278 283 285 285 285 284 283 282 282 281 280 279 278 278 278 277 277 275 273 272 270 268 266 264 262 258 253 250 247 243 240 238 236 235 235 234 233 233 235 236 239 243 247 250 254 257 257 258 260 264 267 270 274 278 282 285 288 291
262 260 261 265 266 267 271 272 274 278 275 266 265 268 268 267 269 270 269 270 271 272 274 277 279 280 279 276 276 281 285 287 287 287 286 285 284 283 281 280 279 278 279 279 278 278 276 274 272 269 267 264 262 260 256 252 248 245 241 238 236 234 234 236 235 233 234 234 236 240 244 247 250 252 255 257 259 263 267 270 273 277 280 283 286 289 292
261 259 261 264 265 266 270 271 273 277 276 270 268 269 267 267 270 271 270 270 272 273 273 275 276 276 276 277 280 285 288 288 288 287 286 286 285 284 282 281 280 279 280 280 279 278 277 275 272 269 265 263 260 258 254 250 245 242 239 235 232 231 232 232 229 227 229 232 236 241 244 247 249 251 254 259 263 268 271 273 276 278 280 282 286 289 292
264 262 263 265 266 268 269 270 271 274 276 273 268 265 266 269 272 272 270 271 273 274 274 275 275 276 277 280 284 286 288 289 288 287 286 285 285 284 283 282 281 280 279 279 277 277 276 275 271 267 263 261 258 256 252 247 242 238 235 231 229 228 228 226 223 224 228 232 237 242 245 246 248 251 256 262 267 270 273 275 276 278 280 283 287 290 293
268 264 264 266 268 267 266 268 270 273 273 271 267 268 272 274 274 275 275 276 276 277 277 278 278 280 283 284 285 287 288 289 288 287 286 285 284 284 284 285 283 280 278 277 275 274 274 273 270 266 262 260 258 254 249 245 239 234 231 227 225 224 224 222 222 225 228 233 239 243 245 248 250 254 259 265 269 271 273 274 276 278 282 285 288 291 295
272 269 268 267 267 266 266 270 275 274 271 270 271 274 277 276 276 277 278 279 280 280 281 281 282 283 285 286 287 288 288 288 288 287 286 285 285 284 285 286 285 281 277 275 273 272 273 273 270 266 262 260 256 251 246 241 235 230 226 223 222 223 222 220 221 224 227 233 239 242 246 250 253 257 261 266 269 270 271 273 277 280 283 287 290 293 296
271 268 265 263 266 268 269 272 273 272 271 273 275 276 277 277 278 278 279 281 281 282 282 283 283 284 285 286 288 289 289 289 288 288 287 287 286 285 285 285 285 281 277 274 272 271 271 271 269 264 261 259 253 246 241 236 230 224 221 219 218 217 214 213 215 220 225 231 236 240 247 252 256 259 263 265 268 270 272 276 279 282 286 289 292 294 296
268 266 265 266 268 269 270 272 272 273 274 276 277 276 277 278 279 278 279 281 283 284 284 283 284 285 285 286 287 288 289 289 289 289 288 287 287 286 285 285 284 280 276 273 272 271 271 270 267 261 258 254 247 239 234 228 221 215 211 210 207 203 202 205 211 215 221 228 233 239 247 251 255 260 263 265 269 273 276 279 282 285 289 292 294 296 297
272 270 269 270 272 272 273 274 273 274 276 278 278 279 279 279 279 279 280 281 283 285 284 284 284 285 285 285 285 286 288 289 289 289 289 288 287 285 284 283 282 280 276 274 273 273 272 270 264 257 252 246 237 230 224 218 210 204 200 198 195 195 198 205 209 213 220 227 232 237 243 249 255 261 265 270 273 276 279 282 286 289 292 294 296 297 298
273 271 271 272 275 276 276 274 273 275 277 277 277 278 278 279 280 280 281 282 284 284 285 284 284 284 284 284 284 285 287 289 290 290 289 288 286 284 283 282 281 279 276 274 274 274 272 266 255 246 242 235 224 215 208 200 193 190 190 191 193 197 202 205 208 214 221 225 229 236 243 251 259 264 270 275 278 280 283 286 289 292 294 296 297 298 300
271 272 273 275 276 276 274 273 274 276 277 276 277 277 278 279 280 281 281 282 282 283 284 283 282 282 282 282 283 285 288 290 291 291 289 288 286 284 282 281 279 278 275 272 271 270 265 255 237 224 220 212 201 191 185 181 180 180 183 187 191 196 199 202 209 216 220 223 231 239 246 253 260 266 273 279 282 285 288 291 293 295 296 298 299 300 301
276 276 277 279 278 276 274 275 276 277 276 277 278 278 279 280 281 281 281 281 280 281 281 280 281 281 281 281 282 284 288 291 291 290 289 287 285 283 281 278 276 273 266 257 254 253 248 229 208 203 201 193 184 179 175 174 176 178 179 181 184 189 194 201 209 214 218 227 236 242 248 254 262 271 279 283 286 289 292 295 297 298 299 301 302 302 304
279 278 279 280 280 278 277 278 278 278 279 280 280 280 281 281 281 281 281 281 280 279 277 277 280 280 279 279 281 285 288 291 291 290 288 286 283 279 276 273 268 256 243 240 241 236 223 205 193 189 184 177 173 173 173 173 174 175 176 178 182 186 192 200 207 213 221 230 237 242 250 260 269 278 285 288 289 293 297 299 299 300 301 303 304 304 306
278 278 279 280 279 279 279 280 280 280 281 282 281 281 282 282 281 281 280 280 280 278 276 276 277 277 277 279 282 286 289 290 289 288 287 284 279 275 271 265 249 231 227 234 229 211 196 183 173 169 166 164 163 164 167 169 171 174 178 181 183 187 193 200 207 214 222 229 237 247 259 269 277 285 290 292 293 296 300 302 302 303 304 305 305 306 307
278 279 279 279 279 280 281 282 282 281 282 282 281 281 281 280 281 281 280 278 278 277 276 276 275 275 276 280 283 287 288 288 288 287 285 282 275 266 256 241 223 215 219 219 205 192 181 166 157 156 158 158 158 159 162 166 171 175 178 181 185 190 196 201 205 213 222 231 243 255 267 277 285 290 294 296 297 300 303 305 306 306 306 307 307 308 309
279 279 280 280 280 280 282 284 284 282 282 281 281 280 279 279 280 281 279 276 274 274 275 277 277 278 279 281 284 286 288 288 287 286 284 279 264 242 224 214 210 212 215 202 188 180 170 160 156 156 157 157 157 159 164 169 173 175 178 183 189 195 199 202 207 214 223 235 249 261 272 282 289 295 298 299 301 304 307 309 309 309 309 310 311 313 313
279 280 281 280 280 281 284 285 284 283 283 282 281 280 278 278 278 279 275 271 270 272 273 275 278 281 281 281 284 288 289 289 287 283 278 263 235 210 204 209 212 212 199 184 176 171 166 161 158 158 159 161 162 164 166 168 170 174 179 185 190 195 199 203 208 215 227 244 259 270 278 286 294 299 302 303 305 306 308 311 313 314 315 317 319 320 320
279 280 280 281 281 282 282 282 283 285 285 283 282 281 279 277 277 275 271 267 268 269 269 269 272 276 279 283 287 290 292 291 288 281 266 235 211 203 202 205 204 186 168 165 166 166 164 161 159 159 161 164 164 164 164 167 172 177 181 185 189 192 194 198 207 222 238 256 270 278 285 292 299 303 305 307 309 309 309 311 314 317 321 324 326 327 326
279 279 279 279 279 280 281 282 283 286 286 284 282 280 278 276 274 271 267 266 266 266 265 264 264 268 276 284 289 294 298 300 297 279 234 203 198 196 184 169 158 154 154 153 153 155 157 158 158 159 161 163 164 166 170 174 176 178 181 184 186 189 193 200 213 231 250 269 281 287 293 299 303 306 308 311 312 311 312 314 318 322 326 328 330 332 332
280 280 279 279 278 279 281 282 284 285 285 283 281 279 277 274 271 265 262 263 263 261 259 257 257 261 271 280 292 310 316 325 34 95 147 162 162 156 147 139 135 138 140 141 144 149 152 154 154 155 159 163 167 171 172 172 172 175 178 180 181 187 196 204 218 242 271 286 291 294 300 304 305 308 311 313 314 315 318 322 325 329 331 332 334 337 337
283 282 281 280 279 279 280 282 284 285 285 283 280 277 273 270 266 262 260 259 257 252 247 246 248 251 254 259 323 12 24 95 105 98 109 129 135 134 132 130 127 126 129 135 141 146 150 152 153 156 162 168 171 171 170 169 171 174 175 178 183 190 197 207 230 266 287 293 294 297 303 308 309 312 315 317 318 321 325 328 330 333 335 337 339 341 342
286 283 280 281 283 283 283 285 285 284 283 282 277 272 268 265 263 257 252 250 248 241 233 228 226 223 219 201 122 82 86 109 118 110 107 115 122 125 127 127 123 122 127 134 139 144 149 152 155 158 163 165 165 166 167 169 171 172 174 179 185 189 196 215 253 282 294 297 297 300 307 313 313 314 316 319 322 327 331 332 333 337 340 342 344 345 346
293 290 288 292 295 294 293 291 288 285 284 282 276 270 265 260 256 249 241 235 229 219 213 209 201 187 168 143 130 117 106 111 122 122 115 112 113 117 123 126 124 123 128 134 138 142 148 153 158 162 162 160 158 161 165 168 170 171 175 179 182 188 202 231 265 291 305 310 309 308 313 317 318 319 321 324 327 332 335 336 337 340 343 345 347 348 349
319 311 307 306 306 305 301 298 294 292 290 284 274 268 261 251 242 235 225 211 198 189 184 172 155 148 141 129 122 120 116 117 122 124 120 117 116 116 117 119 120 123 128 134 137 140 146 153 160 163 164 162 163 165 168 168 169 170 173 179 186 196 216 243 273 303 321 326 322 318 319 322 326 330 332 332 335 339 342 341 341 343 346 348 349 351 352
329 318 311 308 306 302 298 298 298 298 296 289 274 262 254 239 218 199 184 176 168 161 156 148 140 138 138 130 120 117 119 123 127 127 124 122 124 126 123 119 119 122 128 134 140 144 149 156 160 161 161 162 163 164 164 163 164 165 169 176 185 201 229 256 283 318 333 331 327 329 333 335 338 340 342 343 345 347 348 346 344 345 348 350 352 353 354
340 332 325 319 313 305 298 299 302 303 316 349 19 128 140 147 150 149 146 145 142 138 137 137 138 138 136 130 121 117 118 124 130 130 126 123 126 130 130 126 124 126 130 135 141 146 151 157 162 164 163 162 164 167 170 171 171 172 174 178 183 203 233 254 300 339 332 328 335 342 347 350 349 347 349 350 350 350 350 349 347 346 349 352 354 355 356
358 352 343 334 333 337 342 353 17 68 95 95 96 105 111 114 118 123 129 133 133 131 129 131 134 135 132 125 118 115 116 124 130 131 128 129 130 128 123 122 125 131 135 139 144 151 155 157 158 160 161 161 161 165 170 174 176 180 183 185 182 179 175 142 48 1 338 339 345 349 352 354 351 349 350 352 352 351 351 349 347 346 348 352 355 356 358
17 18 15 13 20 35 46 55 66 84 101 107 108 110 115 117 114 112 118 126 130 129 128 129 132 132 127 122 118 113 112 119 130 134 134 135 132 122 114 116 122 128 136 148 159 164 164 161 158 157 159 159 157 156 160 165 169 174 178 179 176 167 148 105 51 9 349 345 345 348 351 352 351 350 349 350 353 354 353 351 349 348 349 351 355 357 359
37 36 40 49 60 65 65 70 80 91 100 105 103 101 108 114 112 108 112 121 126 125 125 126 129 130 126 122 119 116 113 114 123 132 136 137 129 118 113 118 126 130 141 155 164 166 166 165 162 160 160 158 156 156 159 159 158 161 166 168 169 166 150 108 48 5 346 338 339 343 346 348 350 351 349 348 351 354 354 353 352 351 350 352 355 358 360
47 48 54 63 69 72 75 80 85 90 97 103 104 101 103 107 107 106 110 116 120 121 122 124 126 129 128 126 124 123 119 116 119 128 133 132 128 124 124 128 132 137 146 153 156 156 158 159 159 159 159 157 156 158 158 155 155 163 168 168 165 161 148 118 41 354 341 335 337 342 344 344 347 351 350 348 348 351 352 353 353 352 351 353 356 359 1
53 56 63 68 71 73 76 80 83 87 92 98 100 101 103 105 105 107 110 113 114 116 118 121 123 126 129 130 131 129 122 116 118 127 133 133 133 135 136 136 136 142 151 155 154 153 153 154 155 157 159 160 161 163 165 166 170 177 180 177 174 171 165 155 339 338 337 337 340 343 345 344 346 349 350 349 347 347 349 351 350 349 350 352 354 358 2
61 64 68 69 71 74 77 81 85 90 94 98 100 102 105 107 106 108 111 111 111 111 112 113 116 119 120 121 122 123 120 115 110 111 116 125 136 147 154 157 156 157 160 159 158 159 159 159 159 161 163 166 171 176 181 185 188 188 186 182 179 174 169 12 352 347 344 342 343 345 346 346 347 349 350 350 347 345 346 348 347 347 348 351 353 356 360
71 72 72 70 71 74 78 81 85 90 94 98 99 100 102 104 105 106 107 105 104 104 104 103 102 104 107 109 108 106 107 107 103 99 100 107 123 144 160 168 165 159 157 157 160 163 167 170 170 172 176 181 184 185 185 187 189 187 183 178 174 167 150 48 10 360 351 348 347 347 347 347 348 348 350 351 349 346 345 346 347 347 348 350 351 353 357
79 79 78 78 78 80 81 83 87 91 94 97 97 98 100 102 103 104 103 101 99 99 98 96 94 93 95 98 99 97 95 96 98 100 102 105 113 127 144 156 158 157 158 161 166 171 177 180 181 183 188 192 192 189 187 187 188 187 186 186 190 197 209 328 348 347 344 344 344 344 344 346 347 348 349 350 350 347 345 347 349 350 350 351 351 351 354
85 83 81 82 83 84 84 85 86 89 93 95 97 99 102 104 105 105 103 100 95 91 89 89 90 89 89 91 94 94 93 92 95 101 111 117 120 123 133 149 160 165 170 175 180 184 187 188 190 195 199 200 200 200 200 198 197 197 200 205 212 224 243 275 306 322 329 332 335 336 338 341 344 346 347 348 348 347 346 347 350 352 353 353 353 352 352
90 86 84 84 84 84 86 86 86 88 90 91 91 91 93 96 99 101 100 97 90 84 80 80 81 82 83 85 86 88 90 91 92 96 107 126 140 145 150 164 175 181 187 192 196 200 201 201 203 207 209 209 210 211 209 207 207 210 214 220 227 238 253 273 290 304 314 320 324 327 331 335 339 342 345 346 347 346 345 345 347 350 352 353 353 352 352
96 90 87 85 84 84 85 86 87 88 88 86 84 84 84 85 87 88 89 88 83 77 73 72 73 73 76 80 80 78 76 73 65 62 66 131 199 209 219 225 222 216 211 209 211 213 215 216 219 220 220 221 221 218 215 215 217 220 224 230 238 247 259 271 283 293 302 308 312 317 321 325 330 335 339 342 343 343 343 343 345 347 350 351 352 352 352
108 100 93 89 87 86 85 84 84 84 83 82 82 80 78 76 74 72 70 69 65 59 55 53 50 45 38 21 351 323 312 310 307 299 286 265 247 242 246 250 249 245 240 233 229 228 227 227 228 230 230 230 229 227 225 225 227 229 233 239 246 252 261 270 278 285 291 297 301 306 310 315 320 325 330 334 337 338 339 340 342 345 348 350 351 352 352
132 117 105 97 93 90 88 86 83 80 78 79 80 79 76 74 69 63 57 51 43 33 24 15 6 358 349 336 319 302 291 284 279 276 273 267 259 256 257 257 257 257 253 248 245 243 240 237 235 235 236 236 235 234 234 234 236 238 241 246 251 257 264 269 274 279 283 288 292 297 301 306 311 316 321 325 328 330 332 335 337 340 344 347 349 351 352
155 142 129 115 103 96 92 87 81 76 74 73 70 66 64 62 56 46 36 28 19 9 358 348 339 331 325 319 312 304 297 290 283 277 273 270 267 265 265 264 263 262 258 255 252 251 250 248 245 243 242 241 240 240 241 242 244 246 248 252 256 262 266 270 274 278 281 283 286 290 294 299 304 309 313 317 319 322 325 328 330 333 337 341 345 348 350
153 151 147 136 115 97 88 81 75 72 69 60 45 32 24 20 13 3 356 352 350 344 337 331 324 317 311 306 300 296 293 290 286 281 277 274 272 270 269 268 266 264 261 259 257 255 253 251 250 248 248 247 246 246 247 248 249 250 253 256 259 263 267 271 275 278 279 280 283 285 288 293 297 302 306 310 312 315 318 322 325 328 332 336 339 343 345
167 168 172 174 164 113 73 57 329 324 347 352 352 350 347 344 340 335 331 328 327 326 323 318 313 307 303 300 296 292 289 286 283 281 278 275 273 271 270 269 267 265 263 261 260 259 256 253 251 249 249 249 248 249 251 251 252 253 255 257 260 263 266 270 273 276 278 279 281 282 284 287 291 295 299 302 305 309 313 317 321 325 328 330 334 337 339
200 205 213 224 231 238 262 279 280 289 303 312 318 323 326 325 325 324 323 320 318 316 314 311 308 304 300 296 293 291 288 285 282 279 276 273 271 270 269 267 266 264 263 262 261 261 260 257 254 252 250 249 249 250 252 253 253 254 256 258 261 263 265 268 272 275 276 277 278 279 281 284 286 289 293 296 298 302 307 312 315 319 321 324 327 330 332